CZ-6A DEB

Satellite information

Favourite Embed

Satellite Type and Status

DEBRISIN ORBIT

Key statistics

Satellite CZ-6A DEB at a glance.

Uptime

495

Days in orbit

Revolutions

≈ 14.7

Per day

Orbit

LEO

Low Earth Orbit

Inclination

88.9

Latest

Satellite identification and parameters

Extended collection of information and parameters for CZ-6A DEB.

Object identification

Identified? True

Debris? True

Object name: CZ-6A DEB

International designator: 2024-140DR

Object number (NORAD): 60712

Object ID (CCSDS): 60712

Country: PEOPLES REPUBLIC OF CHINA (PRC)

Current information (Y/N): Y

RCS size: MEDIUM

Orbital parameters

Period: 98.135 minutes

Inclination: 88.8804 deg

SMA: 7047.62 km

Apoapsis: 778.318 km

Periapsis: 560.652 km

RAAN: 284.0731 deg

Eccentricy: 0.01544253

Argument of periapsis: 141.2074 deg

Mean anomaly: 220.0352 deg

Mean motion: 14.67367875 rev/day

Mean motion (dot): 0.00003654 rev/day2

B* drag term: 0.00053691873 1/REarth

Two-line elements (TLE)

Creation date: Dec. 12, 2025, 10:14 a.m.

Reference frame: TEME

Reference center: EARTH

Epoch: Dec. 12, 2025, 6:48 a.m. UTC

TLE line 0: 0 CZ-6A DEB

TLE line 1: 1 60712U 24140DR 25346.28369724 .00003654 00000-0 53692-3 0 9994

TLE line 2: 2 60712 88.8804 284.0731 0154425 141.2074 220.0352 14.67367875 71342

Live tracking on map

Real-time ground track for satellite CZ-6A DEB.

In-orbit conjunctions

A list of the most updated potential collisions computed for object CZ-6A DEB.

Target Orbit TCA Probability of collision Miss distance Type
FENGYUN 1C DEB SSO 2025-02-11 22:06:17 0.0003038313 644.0 (m) DEBRIS
CZ-6A DEB LEO 2024-12-23 09:07:55 0.0001193165 821.0 (m) DEBRIS
THORAD AGENA D DEB LEO 2024-11-07 17:20:49 0.0002949092 210.0 (m) DEBRIS
FENGYUN 1C DEB SSO 2024-11-07 09:23:21 0.0001444776 816.0 (m) DEBRIS
SL-8 DEB * LEO 2024-11-05 02:55:20 0.008607512 39.0 (m) DEBRIS

Associated space launch

18 Low Earth Orbit communication satellites with Ku, Q and V band payloads for the G60 constellation operated by Shanghai Spacecom Satellite Technology (SSST) with funding backed by the Shanghai local government. Initial constellation will consist of 1296 satellites by 2027 with long term plans to expand it to 12000 satellites.

CZ-6A DEB was lifted into orbit during the mission ‘Long March 6A | G60 Polar Group 01’, on board a Long March 6A space rocket.

The launch took place on Aug. 6, 2024, 6:42 a.m. from Launch Complex 9A.

For more information about the launch, click the button.

Launch to space Long March 6A | G60 Polar Group 01
Long March 6A | G60 Polar Group 01

Agency: N/A

Status: Launch Successful

Launch date: Aug. 6, 2024, 6:42 a.m. UTC

Rocket: Long March 6A

Launch pad: Launch Complex 9A

Location: Taiyuan Satellite Launch Center, People's Republic of China

...

Latest news about this satellite

News about space launch
Brightness of first Chinese broadband constellation satellites alarms astronomers

The first satellites of a Chinese broadband constellation are significantly brighter than those of Western systems, posing a new challenge for astronomers.

News about space launch
Chinese rocket stage breaks up into cloud of more than 700 pieces of space debris

HELSINKI — A Chinese Long March 6A rocket’s upper stage has fragmented into a cloud of over 700 pieces of space debris, adding to concerns about long-term orbital safety. China […]

News about space launch
China's Thousand Sails Megaconstellation Kicks Off with Dangerous Debris Field

China's Thousand Sails Megaconstellation Kicks Off with Dangerous Debris Field


Newsletter sign-up

Weekly statistics, charts and insights to help you stay on top of the space industry.